Hilo, HI

3:57 AM HST on January 16, 2017 (GMT -1000)
Hilo International

Weather History for PHTO - November, 2014

Change the Weather History Date:

Monday, November 10, 2014

  Actual Average Record
Temperature  
Mean Temperature 74 °F 74 °F  
Max Temperature 82 °F 81 °F 87 °F (1965)
Min Temperature 66 °F 68 °F 62 °F (1993)
Degree Days  
Heating Degree Days 0 0  
Month to date heating degree days 0 0  
Since 1 July heating degree days 0 0  
Cooling Degree Days 9 9  
Month to date cooling degree days 95 98  
Year to date cooling degree days 3221 2833  
Growing Degree Days 23 (Base 50)    
Moisture  
Dew Point 66 °F    
Average Humidity 76    
Maximum Humidity 90    
Minimum Humidity 62    
Precipitation  
Precipitation T in 0.52 in 2.81 in (2015)
Month to date precipitation 3.89 5.18  
Year to date precipitation 104.00 104.83  
Snow  
Snow 0.00 in - - ()
Month to date snowfall 0.0  
Since 1 July snowfall 0.0  
Since 1 September snowfall 0.0  
Snow Depth 0.00 in    
Sea Level Pressure  
Sea Level Pressure 29.96 in    
Wind  
Wind Speed 5 mph (SW)    
Max Wind Speed 10 mph    
Max Gust Speed 13 mph    
Visibility 10 miles    
Events      
T = Trace of Precipitation, MM = Missing Value Source: NWS Daily Summary

Daily Weather History Graph

Daily Weather History Graph

Search for Another Location

Airport or City:

Trip Planner

Search our weather history database for the weather conditions in past years. The results will help you decide how hot, cold, wet, or windy it might be!

Date:

Astronomy

Nov. 10, 2014 Rise Set
Actual Time 6:25 AM HST 5:42 PM HST
Civil Twilight 6:02 AM HST 6:05 PM HST
Nautical Twilight 5:36 AM HST 6:31 PM HST
Astronomical Twilight 5:10 AM HST 6:57 PM HST
Moon 9:22 PM HST (11/10) 9:52 AM HST (11/10)
Length of Visible Light 12h 02m
Length of Day
11h 16m
Waning Gibbous, 83% of the Moon is Illuminated
Nov 10
Waning Gibbous
Nov 14
Last Quarter
Nov 22
New
Nov 29
First Quarter
Dec 6
Full

Hourly Weather History & Observations

Time (HST) Temp. Heat Index Dew Point Humidity Pressure Visibility Wind Dir Wind Speed Gust Speed Precip Events Conditions
12:53 AM 69.1 °F - 64.9 °F 87% 29.99 in 10.0 mi SW 5.8 mph - N/A   Clear
1:53 AM 70.0 °F - 64.9 °F 84% 29.97 in 10.0 mi SW 5.8 mph - N/A   Overcast
2:53 AM 70.0 °F - 64.9 °F 84% 29.97 in 10.0 mi WSW 5.8 mph - N/A   Mostly Cloudy
3:53 AM 69.1 °F - 63.0 °F 81% 29.96 in 10.0 mi WSW 5.8 mph - N/A   Overcast
4:53 AM 68.0 °F - 61.0 °F 78% 29.96 in 10.0 mi SW 8.1 mph - N/A   Scattered Clouds
5:53 AM 66.0 °F - 60.1 °F 81% 29.96 in 10.0 mi SW 8.1 mph - N/A   Clear
6:53 AM 66.0 °F - 59.0 °F 78% 29.97 in 10.0 mi SW 9.2 mph - N/A   Clear
7:53 AM 71.1 °F - 61.0 °F 70% 29.97 in 10.0 mi WSW 5.8 mph - N/A   Clear
8:53 AM 75.0 °F - 64.0 °F 69% 29.99 in 10.0 mi SW 3.5 mph - N/A   Overcast
9:53 AM 77.0 °F - 64.9 °F 66% 30.00 in 10.0 mi Calm Calm - N/A   Scattered Clouds
10:53 AM 80.1 °F 82.1 °F 66.0 °F 62% 29.99 in 10.0 mi SE 3.5 mph - N/A   Mostly Cloudy
11:53 AM 80.1 °F 82.1 °F 66.0 °F 62% 29.96 in 10.0 mi East 5.8 mph - N/A   Scattered Clouds
12:53 PM 79.0 °F - 66.9 °F 66% 29.94 in 10.0 mi East 9.2 mph - N/A   Mostly Cloudy
1:53 PM 78.1 °F - 68.0 °F 71% 29.93 in 10.0 mi SE 5.8 mph - N/A   Overcast
2:53 PM 78.1 °F - 68.0 °F 71% 29.92 in 10.0 mi East 3.5 mph - N/A   Overcast
3:53 PM 77.0 °F - 69.1 °F 76% 29.92 in 10.0 mi Calm Calm - N/A   Overcast
4:53 PM 73.9 °F - 69.1 °F 85% 29.93 in 10.0 mi SW 3.5 mph - N/A   Overcast
5:53 PM 73.9 °F - 68.0 °F 82% 29.94 in 10.0 mi WSW 5.8 mph - N/A   Overcast
6:53 PM 73.9 °F - 68.0 °F 82% 29.95 in 10.0 mi SSW 4.6 mph - N/A   Mostly Cloudy
7:53 PM 73.0 °F - 68.0 °F 84% 29.96 in 10.0 mi WSW 4.6 mph - N/A   Overcast
8:03 PM 73.0 °F - 68.0 °F 84% 29.97 in 10.0 mi SW 4.6 mph - N/A   Overcast
8:31 PM 73.9 °F - 70.0 °F 87% 29.97 in 10.0 mi WNW 4.6 mph - N/A   Overcast
8:53 PM 73.9 °F - 70.0 °F 87% 29.97 in 10.0 mi SSW 3.5 mph - 0.00 in   Overcast
9:53 PM 71.1 °F - 68.0 °F 90% 29.96 in 10.0 mi SW 3.5 mph - N/A   Scattered Clouds
10:53 PM 71.1 °F - 66.9 °F 87% 29.96 in 10.0 mi WSW 4.6 mph - N/A   Mostly Cloudy
11:53 PM 70.0 °F - 66.0 °F 87% 29.95 in 10.0 mi SW 3.5 mph - N/A   Clear